McComb, MS

4:37 AM CDT on April 20, 2018 (GMT -0500)
McComb-Pike County-Lewis

Weather History for KMCB - May, 2013

Change the Weather History Date:

Monday, May 13, 2013

  Actual Average Record
Temperature  
Mean Temperature 65 °F -  
Max Temperature 79 °F 82 °F 92 °F (1962)
Min Temperature 51 °F 60 °F 42 °F (1960)
Growing Degree Days 15 (Base 50)    
Moisture  
Dew Point 45 °F    
Average Humidity 55    
Maximum Humidity 89    
Minimum Humidity 26    
Precipitation  
Precipitation 0.00 in - - ()
Sea Level Pressure  
Sea Level Pressure 30.23 in    
Wind  
Wind Speed 3 mph (ENE)    
Max Wind Speed 8 mph    
Max Gust Speed -    
Visibility 10 miles    
Events      
Averages and records for this station are not official NWS values.
T = Trace of Precipitation, MM = Missing Value Source: NWS Daily Summary

Daily Weather History Graph

Daily Weather History Graph

Search for Another Location

Airport or City:

Astronomy

May. 13, 2013 Rise Set
Actual Time 6:07 AM CDT 7:49 PM CDT
Civil Twilight 5:40 AM CDT 8:16 PM CDT
Nautical Twilight 5:09 AM CDT 8:47 PM CDT
Astronomical Twilight 4:35 AM CDT 9:21 PM CDT
Moon 8:54 AM CDT (5/13) 10:58 PM CDT (5/13)
Length of Visible Light 14h 35m
Length of Day
13h 42m
Waxing Crescent, 12% of the Moon is Illuminated
May 13
Waxing Crescent
May 17
First Quarter
May 24
Full
May 31
Last Quarter
Jun 8
New

Hourly Weather History & Observations

Time (CDT) Temp. Dew Point Humidity Pressure Visibility Wind Dir Wind Speed Gust Speed Precip Events Conditions
12:53 AM 57.0 °F 42.1 °F 57% 30.17 in 10.0 mi North 4.6 mph - N/A   Clear
1:53 AM 54.0 °F 43.0 °F 66% 30.18 in 10.0 mi Calm Calm - N/A   Clear
2:53 AM 54.0 °F 42.1 °F 64% 30.18 in 10.0 mi Calm Calm - N/A   Clear
3:53 AM 54.0 °F 42.1 °F 64% 30.19 in 10.0 mi Variable 3.5 mph - N/A   Clear
4:53 AM 53.1 °F 41.0 °F 64% 30.19 in 10.0 mi NE 3.5 mph - N/A   Clear
5:53 AM 51.1 °F 42.1 °F 71% 30.22 in 10.0 mi Calm Calm - N/A   Clear
6:53 AM 51.1 °F 42.1 °F 71% 30.25 in 10.0 mi ENE 3.5 mph - N/A   Clear
7:53 AM 57.0 °F 39.9 °F 53% 30.27 in 10.0 mi East 5.8 mph - N/A   Clear
8:53 AM 61.0 °F 41.0 °F 48% 30.28 in - East 8.1 mph - N/A   Clear
9:53 AM 66.0 °F 42.1 °F 42% 30.30 in 10.0 mi North - - N/A   Unknown
10:53 AM 68.0 °F 39.9 °F 36% 30.31 in 10.0 mi Variable 5.8 mph - N/A   Clear
11:53 AM 72.0 °F 41.0 °F 33% 30.30 in 10.0 mi Variable 6.9 mph - N/A   Clear
12:53 PM 73.9 °F 39.9 °F 29% 30.28 in 10.0 mi Variable 3.5 mph - N/A   Clear
1:53 PM 75.9 °F 39.0 °F 26% 30.26 in 10.0 mi ENE 5.8 mph - N/A   Clear
3:53 PM 79.0 °F 42.1 °F 27% 30.22 in 10.0 mi Calm Calm - N/A   Clear
4:53 PM 79.0 °F 44.1 °F 29% 30.21 in 10.0 mi Calm Calm - N/A   Clear
5:53 PM 77.0 °F 42.1 °F 29% 30.20 in 10.0 mi Calm Calm - N/A   Clear
7:53 PM 68.0 °F 55.0 °F 63% 30.20 in 10.0 mi Calm Calm - N/A   Clear
8:53 PM 62.1 °F 55.9 °F 80% 30.21 in 10.0 mi Calm Calm - N/A   Clear
9:53 PM 61.0 °F 55.0 °F 81% 30.21 in 10.0 mi Calm Calm - N/A   Clear
10:53 PM 59.0 °F 55.0 °F 87% 30.21 in 10.0 mi Calm Calm - N/A   Clear
11:53 PM 57.0 °F 54.0 °F 89% 30.22 in 10.0 mi Calm Calm - N/A   Clear